Date String (YYYY-MM-DD hh:mm:ss) UTC,Instrument flags,absolute air pressure of the measurement (hPa),sample flow rate (lpm),inlet stack bypass flow (lpm),air temperature of the measurement (°C),ambient temperature measured by the external sensor (°C),aerosol sample conditioner tube jacket temperature (°C),OPC LED temperature (°C),internal box temperature (°C),relative humidity of the measurement (%),span deviation,mass concentration of particles derived from Lorenz-Mie calculation of OPC scattering (μg/m³),mass concentration of particles derived from Lorenz-Mie calculation of OPC scattering (μg/m³),mass concentration of particles derived from Lorenz-Mie calculation of OPC scattering (μg/m³)
DateTimeUTC,F1_M11,P_M11,Q1_M11,Q2_M11,T1_M11,T2_M11,T3_M11,T4_M11,T5_M11,U1_M11,ZSPAN_M11,X0_M11,X2_M11,X1_M11
2024-04-02 01:00:00,SystemResetWarning,0824.6,5.00,000.00,021.4,020.5,000.0,030.0,023.2,25.4,0000.0,0003.76,0002.08,0001.73
2024-04-02 01:01:00,SystemResetWarning,0824.5,5.01,000.00,021.4,020.5,000.0,030.0,023.2,25.7,0000.0,0003.82,0002.10,0001.75
2024-04-02 01:02:00,SystemResetWarning,0824.5,5.00,000.00,021.4,020.5,000.0,030.0,023.2,26.3,0000.0,0003.89,0002.13,0001.77
2024-04-02 01:03:00,SystemResetWarning,0824.5,5.00,000.00,021.3,020.5,000.0,030.0,023.2,26.0,0000.0,0003.86,0002.14,0001.78
2024-04-02 01:04:00,SystemResetWarning,0824.5,4.99,000.00,021.3,020.5,000.0,030.0,023.2,25.7,0000.0,0003.77,0002.11,0001.78
2024-04-02 01:05:00,SystemResetWarning,0824.5,4.99,000.00,021.3,020.5,000.0,030.0,023.2,25.7,0000.0,0003.74,0002.10,0001.79
2024-04-02 01:06:00,SystemResetWarning,0824.6,5.00,000.00,021.3,020.5,000.0,030.0,023.2,25.5,0000.0,0003.78,0002.12,0001.82
2024-04-02 01:07:00,SystemResetWarning,0824.7,5.01,000.00,021.3,020.4,000.0,030.0,023.2,25.3,0000.0,0003.77,0002.12,0001.82
2024-04-02 01:08:00,SystemResetWarning,0824.7,4.99,000.00,021.3,020.4,000.0,030.0,023.2,25.3,0000.0,0002.77,0002.13,0001.84
2024-04-02 01:09:00,SystemResetWarning,0824.7,5.02,000.00,021.3,020.4,000.0,030.0,023.2,25.3,0000.0,0002.72,0002.11,0001.85
2024-04-02 01:10:00,SystemResetWarning,0824.7,5.00,000.00,021.3,020.4,000.0,030.0,023.1,25.3,0000.0,0002.66,0002.07,0001.84
2024-04-02 01:11:00,SystemResetWarning,0824.7,5.00,000.00,021.3,020.4,000.0,030.0,023.1,25.3,0000.0,0002.67,0002.07,0001.86
2024-04-02 01:12:00,SystemResetWarning,0824.8,5.00,000.00,021.3,020.4,000.0,029.9,023.1,25.5,0000.0,0002.61,0002.07,0001.88
2024-04-02 01:13:00,SystemResetWarning,0824.7,5.00,000.00,021.3,020.4,000.0,029.9,023.1,25.6,0000.0,0002.56,0002.06,0001.88
2024-04-02 01:14:00,SystemResetWarning,0824.7,4.99,000.00,021.3,020.4,000.0,029.9,023.1,25.6,0000.0,0002.58,0002.05,0001.88
2024-04-02 01:15:00,SystemResetWarning,0824.8,5.00,000.00,021.3,020.5,000.0,029.9,023.1,25.6,0000.0,0002.72,0002.06,0001.88
2024-04-02 01:16:00,SystemResetWarning,0824.8,5.00,000.00,021.3,020.5,000.0,029.9,023.1,25.6,0000.0,0002.69,0002.05,0001.86
2024-04-02 01:17:00,SystemResetWarning,0824.9,5.00,000.00,021.3,020.5,000.0,029.9,023.1,25.6,0000.0,0002.56,0002.00,0001.84
2024-04-02 01:18:00,SystemResetWarning,0824.9,5.00,000.00,021.3,020.5,000.0,029.9,023.1,25.6,0000.0,0002.51,0001.99,0001.84
2024-04-02 01:19:00,SystemResetWarning,0824.9,5.01,000.00,021.3,020.5,000.0,029.9,023.1,25.5,0000.0,0002.65,0002.00,0001.84
2024-04-02 01:20:00,SystemResetWarning,0824.9,5.00,000.00,021.3,020.5,000.0,029.9,023.1,25.7,0000.0,0002.91,0002.01,0001.84
2024-04-02 01:21:00,SystemResetWarning,0824.9,5.00,000.00,021.3,020.5,000.0,029.9,023.1,25.7,0000.0,0003.17,0002.06,0001.84
2024-04-02 01:22:00,SystemResetWarning,0824.9,5.00,000.00,021.3,020.5,000.0,029.9,023.1,25.5,0000.0,0003.57,0002.07,0001.83
2024-04-02 01:23:00,SystemResetWarning,0824.9,5.01,000.00,021.3,020.5,000.0,029.9,023.1,25.5,0000.0,0003.81,0002.06,0001.83
2024-04-02 01:24:00,SystemResetWarning,0824.9,5.00,000.00,021.3,020.5,000.0,029.9,023.1,25.6,0000.0,0003.76,0002.04,0001.82
2024-04-02 01:25:00,SystemResetWarning,0824.9,5.00,000.00,021.3,020.5,000.0,029.9,023.1,25.8,0000.0,0003.80,0002.03,0001.81
2024-04-02 01:26:00,SystemResetWarning,0824.9,5.00,000.00,021.3,020.5,000.0,029.9,023.1,25.8,0000.0,0003.68,0002.02,0001.82
2024-04-02 01:27:00,SystemResetWarning,0825.0,4.99,000.00,021.3,020.5,000.0,029.9,023.1,25.7,0000.0,0003.69,0002.03,0001.82
2024-04-02 01:28:00,SystemResetWarning,0825.0,5.00,000.00,021.3,020.5,000.0,029.9,023.1,25.6,0000.0,0003.71,0002.04,0001.83
2024-04-02 01:29:00,SystemResetWarning,0825.0,4.99,000.00,021.3,020.6,000.0,029.9,023.1,25.6,0000.0,0003.79,0002.06,0001.85
2024-04-02 01:30:00,SystemResetWarning,0825.0,5.00,000.00,021.3,020.6,000.0,029.9,023.1,25.6,0000.0,0003.89,0002.11,0001.86
2024-04-02 01:31:00,SystemResetWarning,0825.1,5.01,000.00,021.3,020.6,000.0,029.9,023.2,25.7,0000.0,0003.61,0002.12,0001.88
2024-04-02 01:32:00,SystemResetWarning,0825.1,5.00,000.00,021.3,020.6,000.0,029.9,023.1,25.7,0000.0,0003.42,0002.11,0001.89
2024-04-02 01:33:00,SystemResetWarning,0825.1,5.00,000.00,021.3,020.6,000.0,029.9,023.1,25.8,0000.0,0003.01,0002.10,0001.90
2024-04-02 01:34:00,SystemResetWarning,0825.1,4.99,000.00,021.3,020.6,000.0,029.9,023.1,25.6,0000.0,0002.71,0002.10,0001.90
2024-04-02 01:35:00,SystemResetWarning,0825.1,4.99,000.00,021.3,020.5,000.0,029.9,023.1,25.6,0000.0,0002.82,0002.16,0001.92
2024-04-02 01:36:00,SystemResetWarning,0825.2,5.00,000.00,021.3,020.5,000.0,029.9,023.1,25.7,0000.0,0002.79,0002.18,0001.93
2024-04-02 01:37:00,SystemResetWarning,0825.2,5.00,000.00,021.3,020.6,000.0,029.9,023.1,25.7,0000.0,0002.96,0002.23,0001.93
2024-04-02 01:38:00,SystemResetWarning,0825.3,5.00,000.00,021.3,020.5,000.0,029.9,023.1,25.6,0000.0,0003.01,0002.26,0001.95
2024-04-02 01:39:00,SystemResetWarning,0825.3,5.00,000.00,021.3,020.6,000.0,029.9,023.2,25.7,0000.0,0003.06,0002.28,0001.95
2024-04-02 01:40:00,SystemResetWarning,0825.3,5.00,000.00,021.3,020.6,000.0,029.9,023.2,25.7,0000.0,0003.06,0002.29,0001.96
2024-04-02 01:41:00,SystemResetWarning,0825.3,5.00,000.00,021.3,020.6,000.0,029.9,023.2,25.7,0000.0,0002.93,0002.27,0001.97
2024-04-02 01:42:00,SystemResetWarning,0825.3,5.01,000.00,021.3,020.6,000.0,029.9,023.1,25.8,0000.0,0003.00,0002.30,0001.98
2024-04-02 01:43:00,SystemResetWarning,0825.3,5.01,000.00,021.3,020.6,000.0,029.9,023.1,25.8,0000.0,0003.06,0002.31,0001.98
2024-04-02 01:44:00,SystemResetWarning,0825.3,5.00,000.00,021.3,020.6,000.0,029.9,023.1,25.9,0000.0,0003.09,0002.32,0001.99
2024-04-02 01:45:00,SystemResetWarning,0825.3,5.00,000.00,021.3,020.6,000.0,029.9,023.1,26.1,0000.0,0003.13,0002.34,0002.00
2024-04-02 01:46:00,SystemResetWarning,0825.3,5.00,000.00,021.3,020.6,000.0,029.9,023.1,26.2,0000.0,0003.11,0002.33,0002.01
2024-04-02 01:47:00,SystemResetWarning,0825.3,4.99,000.00,021.3,020.5,000.0,029.9,023.1,26.1,0000.0,0003.17,0002.35,0002.01
2024-04-02 01:48:00,SystemResetWarning,0825.4,5.00,000.00,021.3,020.5,000.0,029.9,023.1,26.2,0000.0,0003.03,0002.31,0002.02
2024-04-02 01:49:00,SystemResetWarning,0825.4,5.00,000.00,021.3,020.5,000.0,029.9,023.1,26.2,0000.0,0002.95,0002.30,0002.03
2024-04-02 01:50:00,SystemResetWarning,0825.4,5.01,000.00,021.3,020.5,000.0,029.9,023.1,26.3,0000.0,0002.95,0002.30,0002.05
2024-04-02 01:51:00,SystemResetWarning,0825.4,5.01,000.00,021.3,020.5,000.0,029.9,023.1,26.2,0000.0,0002.88,0002.28,0002.05
2024-04-02 01:52:00,SystemResetWarning,0825.4,5.00,000.00,021.3,020.5,000.0,029.9,023.1,26.0,0000.0,0002.97,0002.32,0002.07
2024-04-02 01:53:00,SystemResetWarning,0825.5,5.00,000.00,021.3,020.5,000.0,029.9,023.1,26.1,0000.0,0002.94,0002.32,0002.08
2024-04-02 01:54:00,SystemResetWarning,0825.5,4.99,000.00,021.3,020.5,000.0,029.9,023.1,26.0,0000.0,0002.87,0002.32,0002.10
2024-04-02 01:55:00,SystemResetWarning,0825.5,4.99,000.00,021.3,020.5,000.0,029.9,023.1,26.1,0000.0,0002.94,0002.34,0002.09
2024-04-02 01:56:00,SystemResetWarning,0825.5,5.00,000.00,021.3,020.5,000.0,029.9,023.1,26.1,0000.0,0002.89,0002.32,0002.08
2024-04-02 01:57:00,SystemResetWarning,0825.6,5.01,000.00,021.3,020.5,000.0,029.9,023.1,25.9,0000.0,0002.90,0002.32,0002.07
2024-04-02 01:58:00,SystemResetWarning,0825.6,5.01,000.00,021.3,020.5,000.0,029.8,023.1,26.1,0000.0,0002.82,0002.29,0002.06
2024-04-02 01:59:00,SystemResetWarning,0825.6,5.01,000.00,021.3,020.5,000.0,029.9,023.1,25.9,0000.0,0002.79,0002.29,0002.06
